This is the latest recevied weather packets stored in our database for station/object W3AJR. If no packets are shown the sender has not sent any weather packets the latest 10 day(s).
| Time | Temp. | Humidity | Pressure | Rain* | Wind** | Luminosity | Snow |
|---|---|---|---|---|---|---|---|
| 1777927538 | 24.44° C | 38% | 1009.4 hPa | 0 mm | - | 373 W/m² | - |
| 1777927238 | 24.44° C | 38% | 1009.4 hPa | 0 mm | - | 515 W/m² | - |
| 1777926935 | 23.89° C | 37% | 1009.4 hPa | 0 mm | - | 530 W/m² | - |
| 1777926632 | 24.44° C | 38% | 1009.4 hPa | 0 mm | - | 540 W/m² | - |
| 1777926328 | 24.44° C | 38% | 1009.6 hPa | 0 mm | - | 392 W/m² | - |
| 1777926025 | 24.44° C | 36% | 1009.4 hPa | 0 mm | - | 521 W/m² | - |
| 1777925722 | 24.44° C | 38% | 1009.6 hPa | 0 mm | - | 590 W/m² | - |
| 1777925420 | 24.44° C | 38% | 1009.5 hPa | 0 mm | - | 508 W/m² | - |
| 1777925116 | 24.44° C | 37% | 1009.4 hPa | 0 mm | - | 563 W/m² | - |
| 1777924813 | 24.44° C | 37% | 1009.8 hPa | 0 mm | - | 585 W/m² | - |
| 1777924509 | 23.89° C | 38% | 1009.8 hPa | 0 mm | - | 508 W/m² | - |
| 1777924206 | 23.89° C | 37% | 1009.9 hPa | 0 mm | - | 563 W/m² | - |
| 1777923901 | 23.89° C | 39% | 1010 hPa | 0 mm | - | 378 W/m² | - |
| 1777923597 | 23.33° C | 37% | 1010.1 hPa | 0 mm | - | 470 W/m² | - |
| 1777923295 | 23.33° C | 38% | 1009.9 hPa | 0 mm | - | 336 W/m² | - |
| 1777922993 | 24.44° C | 37% | 1010 hPa | 0 mm | - | 448 W/m² | - |
| 1777922690 | 24.44° C | 36% | 1009.9 hPa | 0 mm | - | 585 W/m² | - |
| 1777922389 | 24.44° C | 35% | 1010 hPa | 0 mm | - | 649 W/m² | - |
| 1777922087 | 25° C | 36% | 1010.4 hPa | 0 mm | - | 485 W/m² | - |
| 1777921781 | 25° C | 35% | 1010.1 hPa | 0 mm | - | 684 W/m² | - |
| 1777921478 | 24.44° C | 35% | 1010.4 hPa | 0 mm | - | 676 W/m² | - |
| 1777921174 | 25° C | 35% | 1010.2 hPa | 0 mm | - | 685 W/m² | - |
| 1777920872 | 24.44° C | 35% | 1010.4 hPa | 0 mm | - | 672 W/m² | - |
| 1777920568 | 23.89° C | 35% | 1010.4 hPa | 0 mm | - | 574 W/m² | - |
| 1777920264 | 24.44° C | 35% | 1010.5 hPa | 0 mm | - | 581 W/m² | - |
* Rain latest hour (hover to see other rain measurements)
** Current wind speed in m/s (hover to see current wind gust speed)